Pagina principale
METAR-TAF:

METAR-TAF

Aeroporti :

Monte Argentario, Italia

latitudine: 42-23N, longitudine: 011-10E, altezza: 630 m

Osservazione

Il bollettino è stato emesso 1 ora e 24 minuti fa, alle 17:55 UTC
Vento 3 kt da sud-ovest
Temperature 22°C
Umidità 50%
Pressione 1017 hPa
Visibilità 10 km o più
Poco nuvoloso ad un'altezza di 500 ft

METAR: LIQO 231755Z 22003KT 9999 FEW005 22/11 Q1017 RMK FEW VAL NIL NC VIS MIN 9999

Ora: 21:19 (19:19 UTC)


TAF: mancante

Osservazioni e previsioni meteorologiche di più di 4000 aeroporti (messaggi METAR e TAF).

Le stazioni disponibili sono rappresentate dai dischi gialli e rossi sulla carta.

Puntare il mouse per vedere il nome della stazione.

Clicca sopra per visualizzare le osservazioni e previsioni meteorologiche.

Per cambiare la mappa : fare clic sui pulsanti verdi con una croce nera per ingrandire, il pulsante verde con un trattino per diminuire, o sulla freccia verde per le mappe adiacenti.


METAR-TAF: